SL-14 DEB, 45459

Orbit data source: Space-Track

SL-14 DEB, 45459 is space debris in LEO originally from a launch on Thu, 15 Aug 1991 UTC launched from the Plesetsk Missile And Space Complex (PKMTR). Debris objects in space refer to the collection of defunct objects orbiting the Earth. Examples of debris include non-operational satellites, rocket bodies, and fragments generated from explosions, collisions, or faulty payload assembly.

Loading next visibility...
SL-14 DEB details
Identifier
45459, 1991-056CT
Orbit
LEO
Last TLE update3 months ago
Origin
Flag of CISRosgidromet (CIS)
ManufacturerUnknown
MissionSpacecraft
Bus & MotorUnknown
MassUnknown
Launch date (UTC)
1991-08-15 (33 years ago)
Launch vehicleUnknown
Launch site
Plesetsk Missile And Space Complex (PKMTR)
Object type
Payload
Rocket body
Debris
Shape & HBRUnknown
Radar Cross SectionSmall (<0.1 m²)

Expand to show TLE details & history

TLE from 3 months ago
0 SL-14 DEB
1 45459U 91056CT  24271.15697152  .00030206  00000-0  33352-1 0  9998
2 45459  82.5965 172.7889 0223762  22.6898 338.3953 13.61486476227497
Epoch: 2024-09-27T03:46Z
Definitive object data (Epoch: 2024-09-27T03:46:02.339Z)
Latitude-0.00003°
Longitude109.84701°
Altitude879.53 km
Speed7.489 km/s
True Right ascension11h 31m 09s
True Declination0° 00' 00"
Sunlit
Object was in daylight at TLE epoch
Visualization TLE readout
Latitude74.49055°
Longitude-157.42402°
Altitude962.263 km
Speed7.409 km/s
Apparent Right ascension15h 17m 42s
Apparent Declination25° 08' 30"
Sunlit
Object is in daylight
Visualization observer readout
Local Sidereal Time02:22:57
Azimuth346.469° N
Elevation-23.702°
Doppler factor1
Orbital elements
Apogee altitude1,193.183 km
Perigee altitude861.764 km
Semi-major axis7,405.611 km
Eccentricity0.0223762
Inclination82.5965°
RAAN172.7889°
Arg. of periapsis22.6898°
True anomaly337.42605°
Mean anomaly338.3953°
Eccentric anomaly337.91323°
Mean motion3.40566 °/min
BSTAR0.033352
Orbital period105.71 mins
Loading maneuver chart data...
Loading historical data...
Loading historical data...
Loading historical data...
Loading historical data...
Loading historical data...
Loading historical data...
Loading historical data...

SL-14 DEB Visibility forecast

Observer location: undefined°, undefined

Span
Click to sort rows by Start time (UTC) header in descending order
Start Az.
Max El. time (UTC)
Max El. Az.
Max El.
End time (UTC)
End Az.
12 mins2024-12-14 08:41:09.988Z162.734° S2024-12-14 08:48:09.988Z77.73° E37.009°2024-12-14 08:53:09.988Z21.551° NNE
10 mins2024-12-14 10:29:09.988Z235.449° WSW2024-12-14 10:34:09.988Z288.577° WNW25.374°2024-12-14 10:39:09.988Z341.73° N
8 mins2024-12-14 19:45:09.988Z15.699° NNE2024-12-14 19:49:09.988Z80.966° E32.326°2024-12-14 19:53:09.988Z139.678° SSE
7 mins2024-12-14 21:32:09.988Z312.112° NW2024-12-14 21:35:09.988Z269.703° W22.381°2024-12-14 21:39:09.988Z222.808° SW
|